Showing default

KUIPER-00181, 67137

Orbit data source: Space-Track

KUIPER-00181, 67137 is a payload satellite owned by Kuiper Systems (US) in LEO that was launched on Mon, 15 Dec 2025 UTC via an ATLAS V 551 launch vehicle from the Air Force Eastern Test Range (AFETR). Payload-class satellites include a variety of spacecraft equipped with specific instruments for various scientific and technological missions. These include communications satellites like Starlink; space stations such as the ISS; scientific satellites like the Hubble; Earth observation satellites from companies like Planet Labs, Umbra, and HawkEye 360; GPS; miniature CubeSats for education and research; and military/defense satellites.

Loading next visibility...
Identifier
67137, 2025-301E
Orbit
LEO
Country
Flag of USUS
Related business
Manufacturer
Kuiper Systems
Mission
Operational Commercial Communications
Bus & Motor
KUIPER, Unknown motor
Mass
~490 kg wet, ~490 kg dry
Launch date (UTC)
2025-12-15 (6 months ago)
Launch vehicle
ATLAS V 551
Launch site
Air Force Eastern Test Range (AFETR)
Object type
Payload
Rocket body
Debris
Shape & HBR
Box + 2 Pan, 3.4 m
Radar Cross Section
2.326 m², Large (>1 m²)

Expand to show TLE details & history
Last TLE update: 9 hours ago

TLE from 9 hours ago
0 KUIPER-00181
1 67137U 25301E   26171.45948017  .00002686  00000-0  38162-3 0  9995
2 67137  51.9029 343.6706 0000773  94.6845 265.4206 14.79878770 28939
Epoch: 2026-06-20T11:01Z
TLE epoch observation values (Epoch: 2026-06-20T11:01:39.086Z)
Latitude
-0°
Longitude
-90.41606°
Altitude
630.497 km
Speed
7.544 km/s
True Right ascension
22h 54m 40s
True Declination
0° 00' 00"
Sunlit
Object was in daylight at epoch
Visualization orbit readout
Latitude
Unknown
Longitude
Unknown
Altitude
Unknown
Speed
Unknown
Apparent Right ascension
Unknown
Apparent Declination
Unknown
Sunlit
N/A
Visualization observer readout
Local Sidereal Time
07:13:46
Azimuth
Unknown
Elevation
Unknown
Doppler factor
Unknown
Orbital elements
Apogee altitude
630.699 km
Perigee altitude
629.616 km
Semi-major axis
7,008.295 km
Eccentricity
0.00008
Inclination
51.9029°
RAAN
343.6706°
Arg. of periapsis
94.6845°
True anomaly
265.41177°
Mean anomaly
265.4206°
Eccentric anomaly
265.41619°
Mean motion
3.69934 °/min
Orbital period
97.31 mins
BSTAR
0.00038162
Loading maneuver chart data...
Computing Atmospheric mass density...
Loading historical data...
Loading historical data...
Loading historical data...
Loading historical data...
Loading historical data...
Loading historical data...
Loading historical data...

Documentation

Showing up to 5 results
|